Year,Month,Day,Hour,Minute,Value (Times are PST for temperature in C)
2014,05,02,00,00,21.40
2014,05,02,00,01,21.40
2014,05,02,00,02,21.40
2014,05,02,00,03,21.40
2014,05,02,00,04,21.40
2014,05,02,00,05,21.40
2014,05,02,00,06,21.40
2014,05,02,00,07,21.40
2014,05,02,00,08,21.40
2014,05,02,00,09,21.50
2014,05,02,00,10,21.50
2014,05,02,00,11,21.50
2014,05,02,00,12,21.60
2014,05,02,00,13,21.60
2014,05,02,00,14,21.60
2014,05,02,00,15,21.60
2014,05,02,00,16,21.60
2014,05,02,00,17,21.60
2014,05,02,00,18,21.60
2014,05,02,00,19,21.60
2014,05,02,00,20,21.60
2014,05,02,00,21,21.70
2014,05,02,00,22,21.70
2014,05,02,00,23,21.70
2014,05,02,00,24,21.60
2014,05,02,00,25,21.60
2014,05,02,00,26,21.60
2014,05,02,00,27,21.60
2014,05,02,00,28,21.60
2014,05,02,00,29,21.60
2014,05,02,00,30,21.60
2014,05,02,00,31,21.50
2014,05,02,00,32,21.50
2014,05,02,00,33,21.50
2014,05,02,00,34,21.50
2014,05,02,00,35,21.40
2014,05,02,00,36,21.40
2014,05,02,00,37,21.40
2014,05,02,00,38,21.40
2014,05,02,00,39,21.30
2014,05,02,00,40,21.30
2014,05,02,00,41,21.30
2014,05,02,00,42,21.30
2014,05,02,00,43,21.20
2014,05,02,00,44,21.20
2014,05,02,00,45,21.20
2014,05,02,00,46,21.20
2014,05,02,00,47,21.20
2014,05,02,00,48,21.20
2014,05,02,00,49,21.30
2014,05,02,00,50,21.30
2014,05,02,00,51,21.30
2014,05,02,00,52,21.30
2014,05,02,00,53,21.30
2014,05,02,00,54,21.30
2014,05,02,00,55,21.30
2014,05,02,00,56,21.20
2014,05,02,00,57,21.20
2014,05,02,00,58,21.30
2014,05,02,00,59,21.30
2014,05,02,01,00,21.30
2014,05,02,01,01,21.30
2014,05,02,01,02,21.30
2014,05,02,01,03,21.30
2014,05,02,01,04,21.30
2014,05,02,01,05,21.30
2014,05,02,01,06,21.30
2014,05,02,01,07,21.30
2014,05,02,01,08,21.20
2014,05,02,01,09,21.20
2014,05,02,01,10,21.20
2014,05,02,01,11,21.20
2014,05,02,01,12,21.20
2014,05,02,01,13,21.20
2014,05,02,01,14,21.10
2014,05,02,01,15,21.10
2014,05,02,01,16,21.10
2014,05,02,01,17,21.10
2014,05,02,01,18,21.00
2014,05,02,01,19,21.00
2014,05,02,01,20,20.90
2014,05,02,01,21,20.90
2014,05,02,01,22,20.90
2014,05,02,01,23,20.90
2014,05,02,01,24,20.90
2014,05,02,01,25,20.80
2014,05,02,01,26,20.80
2014,05,02,01,27,20.80
2014,05,02,01,28,20.80
2014,05,02,01,29,20.70
2014,05,02,01,30,20.70
2014,05,02,01,31,20.70
2014,05,02,01,32,20.70
2014,05,02,01,33,20.60
2014,05,02,01,34,20.60
2014,05,02,01,35,20.60
2014,05,02,01,36,20.60
2014,05,02,01,37,20.60
2014,05,02,01,38,20.60
2014,05,02,01,39,20.60
2014,05,02,01,40,20.60
2014,05,02,01,41,20.60
2014,05,02,01,42,20.60
2014,05,02,01,43,20.50
2014,05,02,01,44,20.50
2014,05,02,01,45,20.40
2014,05,02,01,46,20.40
2014,05,02,01,47,20.40
2014,05,02,01,48,20.30
2014,05,02,01,49,20.30
2014,05,02,01,50,20.20
2014,05,02,01,51,20.20
2014,05,02,01,52,20.10
2014,05,02,01,53,20.10
2014,05,02,01,54,20.10
2014,05,02,01,55,20.00
2014,05,02,01,56,20.00
2014,05,02,01,57,20.00
2014,05,02,01,58,20.00
2014,05,02,01,59,20.00
2014,05,02,02,00,20.00
2014,05,02,02,01,19.90
2014,05,02,02,02,19.90
2014,05,02,02,03,19.90
2014,05,02,02,04,19.90
2014,05,02,02,05,19.90
2014,05,02,02,06,19.90
2014,05,02,02,07,19.90
2014,05,02,02,08,19.80
2014,05,02,02,09,19.80
2014,05,02,02,10,19.80
2014,05,02,02,11,19.80
2014,05,02,02,12,19.80
2014,05,02,02,13,19.70
2014,05,02,02,14,19.70
2014,05,02,02,15,19.70
2014,05,02,02,16,19.70
2014,05,02,02,17,19.70
2014,05,02,02,18,19.60
2014,05,02,02,19,19.60
2014,05,02,02,20,19.60
2014,05,02,02,21,19.60
2014,05,02,02,22,19.60
2014,05,02,02,23,19.50
2014,05,02,02,24,19.50
2014,05,02,02,25,19.50
2014,05,02,02,26,19.40
2014,05,02,02,27,19.40
2014,05,02,02,28,19.40
2014,05,02,02,29,19.40
2014,05,02,02,30,19.30
2014,05,02,02,31,19.30
2014,05,02,02,32,19.30
2014,05,02,02,33,19.30
2014,05,02,02,34,19.30
2014,05,02,02,35,19.30
2014,05,02,02,36,19.20
2014,05,02,02,37,19.20
2014,05,02,02,38,19.20
2014,05,02,02,39,19.20
2014,05,02,02,40,19.20
2014,05,02,02,41,19.20
2014,05,02,02,42,19.20
2014,05,02,02,43,19.10
2014,05,02,02,44,19.10
2014,05,02,02,45,19.10
2014,05,02,02,46,19.10
2014,05,02,02,47,19.00
2014,05,02,02,48,19.00
2014,05,02,02,49,18.90
2014,05,02,02,50,18.90
2014,05,02,02,51,18.90
2014,05,02,02,52,18.80
2014,05,02,02,53,18.80
2014,05,02,02,54,18.80
2014,05,02,02,55,18.80
2014,05,02,02,56,18.80
2014,05,02,02,57,18.70
2014,05,02,02,58,18.70
2014,05,02,02,59,18.70
2014,05,02,03,00,18.60
2014,05,02,03,01,18.60
2014,05,02,03,02,18.50
2014,05,02,03,03,18.50
2014,05,02,03,04,18.40
2014,05,02,03,05,18.30
2014,05,02,03,06,18.30
2014,05,02,03,07,18.20
2014,05,02,03,08,18.20
2014,05,02,03,09,18.10
2014,05,02,03,10,18.10
2014,05,02,03,11,18.10
2014,05,02,03,12,18.10
2014,05,02,03,13,18.10
2014,05,02,03,14,18.10
2014,05,02,03,15,18.10
2014,05,02,03,16,18.10
2014,05,02,03,17,18.00
2014,05,02,03,18,18.00
2014,05,02,03,19,18.00
2014,05,02,03,20,18.00
2014,05,02,03,21,17.90
2014,05,02,03,22,17.90
2014,05,02,03,23,17.90
2014,05,02,03,24,17.90
2014,05,02,03,25,17.80
2014,05,02,03,26,17.80
2014,05,02,03,27,17.80
2014,05,02,03,28,17.80
2014,05,02,03,29,17.70
2014,05,02,03,30,17.70
2014,05,02,03,31,17.70
2014,05,02,03,32,17.70
2014,05,02,03,33,17.60
2014,05,02,03,34,17.60
2014,05,02,03,35,17.60
2014,05,02,03,36,17.60
2014,05,02,03,37,17.60
2014,05,02,03,38,17.50
2014,05,02,03,39,17.50
2014,05,02,03,40,17.50
2014,05,02,03,41,17.40
2014,05,02,03,42,17.40
2014,05,02,03,43,17.30
2014,05,02,03,44,17.30
2014,05,02,03,45,17.30
2014,05,02,03,46,17.30
2014,05,02,03,47,17.20
2014,05,02,03,48,17.20
2014,05,02,03,49,17.20
2014,05,02,03,50,17.20
2014,05,02,03,51,17.20
2014,05,02,03,52,17.20
2014,05,02,03,53,17.20
2014,05,02,03,54,17.10
2014,05,02,03,55,17.10
2014,05,02,03,56,17.10
2014,05,02,03,57,17.10
2014,05,02,03,58,17.10
2014,05,02,03,59,17.10
2014,05,02,04,00,17.10
2014,05,02,04,01,17.10
2014,05,02,04,02,17.00
2014,05,02,04,03,17.00
2014,05,02,04,04,17.00
2014,05,02,04,05,17.00
2014,05,02,04,06,17.00
2014,05,02,04,07,17.00
2014,05,02,04,08,17.00
2014,05,02,04,09,16.90
2014,05,02,04,10,16.90
2014,05,02,04,11,16.90
2014,05,02,04,12,16.90
2014,05,02,04,13,16.90
2014,05,02,04,14,16.80
2014,05,02,04,15,16.80
2014,05,02,04,16,16.80
2014,05,02,04,17,16.80
2014,05,02,04,18,16.80
2014,05,02,04,19,16.80
2014,05,02,04,20,16.80
2014,05,02,04,21,16.80
2014,05,02,04,22,16.80
2014,05,02,04,23,16.80
2014,05,02,04,24,16.80
2014,05,02,04,25,16.80
2014,05,02,04,26,16.70
2014,05,02,04,27,16.70
2014,05,02,04,28,16.70
2014,05,02,04,29,16.70
2014,05,02,04,30,16.70
2014,05,02,04,31,16.60
2014,05,02,04,32,16.60
2014,05,02,04,33,16.60
2014,05,02,04,34,16.60
2014,05,02,04,35,16.50
2014,05,02,04,36,16.50
2014,05,02,04,37,16.50
2014,05,02,04,38,16.50
2014,05,02,04,39,16.40
2014,05,02,04,40,16.40
2014,05,02,04,41,16.40
2014,05,02,04,42,16.40
2014,05,02,04,43,16.40
2014,05,02,04,44,16.40
2014,05,02,04,45,16.40
2014,05,02,04,46,16.30
2014,05,02,04,47,16.30
2014,05,02,04,48,16.30
2014,05,02,04,49,16.30
2014,05,02,04,50,16.30
2014,05,02,04,51,16.30
2014,05,02,04,52,16.30
2014,05,02,04,53,16.30
2014,05,02,04,54,16.30
2014,05,02,04,55,16.30
2014,05,02,04,56,16.30
2014,05,02,04,57,16.30
2014,05,02,04,58,16.30
2014,05,02,04,59,16.30
2014,05,02,05,00,16.30
2014,05,02,05,01,16.30
2014,05,02,05,02,16.30
2014,05,02,05,03,16.40
2014,05,02,05,04,16.50
2014,05,02,05,05,16.50
2014,05,02,05,06,16.60
2014,05,02,05,07,16.70
2014,05,02,05,08,16.70
2014,05,02,05,09,16.80
2014,05,02,05,10,16.80
2014,05,02,05,11,16.80
2014,05,02,05,12,16.80
2014,05,02,05,13,16.80
2014,05,02,05,14,16.80
2014,05,02,05,15,16.90
2014,05,02,05,16,16.80
2014,05,02,05,17,16.80
2014,05,02,05,18,16.80
2014,05,02,05,19,16.80
2014,05,02,05,20,16.70
2014,05,02,05,21,16.70
2014,05,02,05,22,16.60
2014,05,02,05,23,16.50
2014,05,02,05,24,16.50
2014,05,02,05,25,16.40
2014,05,02,05,26,16.40
2014,05,02,05,27,16.40
2014,05,02,05,28,16.40
2014,05,02,05,29,16.40
2014,05,02,05,30,16.40
2014,05,02,05,31,16.50
2014,05,02,05,32,16.60
2014,05,02,05,33,16.70
2014,05,02,05,34,16.80
2014,05,02,05,35,17.00
2014,05,02,05,36,17.20
2014,05,02,05,37,17.30
2014,05,02,05,38,17.30
2014,05,02,05,39,17.40
2014,05,02,05,40,17.40
2014,05,02,05,41,17.40
2014,05,02,05,42,17.40
2014,05,02,05,43,17.40
2014,05,02,05,44,17.40
2014,05,02,05,45,17.30
2014,05,02,05,46,17.20
2014,05,02,05,47,17.20
2014,05,02,05,48,17.20
2014,05,02,05,49,17.10
2014,05,02,05,50,17.10
2014,05,02,05,51,17.10
2014,05,02,05,52,17.10
2014,05,02,05,53,17.10
2014,05,02,05,54,17.00
2014,05,02,05,55,17.00
2014,05,02,05,56,16.90
2014,05,02,05,57,16.90
2014,05,02,05,58,16.80
2014,05,02,05,59,16.80
2014,05,02,06,00,16.80
2014,05,02,06,01,16.70
2014,05,02,06,02,16.60
2014,05,02,06,03,16.50
2014,05,02,06,04,16.40
2014,05,02,06,05,16.30
2014,05,02,06,06,16.20
2014,05,02,06,07,16.10
2014,05,02,06,08,16.10
2014,05,02,06,09,16.00
2014,05,02,06,10,15.90
2014,05,02,06,11,15.90
2014,05,02,06,12,15.80
2014,05,02,06,13,15.80
2014,05,02,06,14,15.70
2014,05,02,06,15,15.70
2014,05,02,06,16,15.70
2014,05,02,06,17,15.70
2014,05,02,06,18,15.70
2014,05,02,06,19,15.70
2014,05,02,06,20,15.60
2014,05,02,06,21,15.60
2014,05,02,06,22,15.60
2014,05,02,06,23,15.60
2014,05,02,06,24,15.60
2014,05,02,06,25,15.60
2014,05,02,06,26,15.60
2014,05,02,06,27,15.60
2014,05,02,06,28,15.60
2014,05,02,06,29,15.50
2014,05,02,06,30,15.50
2014,05,02,06,31,15.50
2014,05,02,06,32,15.40
2014,05,02,06,33,15.40
2014,05,02,06,34,15.40
2014,05,02,06,35,15.40
2014,05,02,06,36,15.30
2014,05,02,06,37,15.30
2014,05,02,06,38,15.30
2014,05,02,06,39,15.40
2014,05,02,06,40,15.50
2014,05,02,06,41,15.60
2014,05,02,06,42,15.70
2014,05,02,06,43,15.70
2014,05,02,06,44,15.70
2014,05,02,06,45,15.80
2014,05,02,06,46,15.80
2014,05,02,06,47,15.80
2014,05,02,06,48,15.80
2014,05,02,06,49,15.70
2014,05,02,06,50,15.80
2014,05,02,06,51,15.70
2014,05,02,06,52,15.70
2014,05,02,06,53,15.70
2014,05,02,06,54,15.70
2014,05,02,06,55,15.70
2014,05,02,06,56,15.70
2014,05,02,06,57,15.60
2014,05,02,06,58,15.60
2014,05,02,06,59,15.60
2014,05,02,07,00,15.60
2014,05,02,07,01,15.60
2014,05,02,07,02,15.60
2014,05,02,07,03,15.60
2014,05,02,07,04,15.60
2014,05,02,07,05,15.50
2014,05,02,07,06,15.50
2014,05,02,07,07,15.50
2014,05,02,07,08,15.50
2014,05,02,07,09,15.50
2014,05,02,07,10,15.50
2014,05,02,07,11,15.50
2014,05,02,07,12,15.60
2014,05,02,07,13,15.60
2014,05,02,07,14,15.70
2014,05,02,07,15,15.70
2014,05,02,07,16,15.80
2014,05,02,07,17,15.80
2014,05,02,07,18,15.90
2014,05,02,07,19,15.90
2014,05,02,07,20,16.00
2014,05,02,07,21,16.00
2014,05,02,07,22,16.10
2014,05,02,07,23,16.10
2014,05,02,07,24,16.10
2014,05,02,07,25,16.10
2014,05,02,07,26,16.10
2014,05,02,07,27,16.20
2014,05,02,07,28,16.20
2014,05,02,07,29,16.20
2014,05,02,07,30,16.20
2014,05,02,07,31,16.20
2014,05,02,07,32,16.20
2014,05,02,07,33,16.20
2014,05,02,07,34,16.20
2014,05,02,07,35,16.20
2014,05,02,07,36,16.10
2014,05,02,07,37,16.20
2014,05,02,07,38,16.20
2014,05,02,07,39,16.20
2014,05,02,07,40,16.20
2014,05,02,07,41,16.20
2014,05,02,07,42,16.20
2014,05,02,07,43,16.20
2014,05,02,07,44,16.30
2014,05,02,07,45,16.30
2014,05,02,07,46,16.40
2014,05,02,07,47,16.40
2014,05,02,07,48,16.50
2014,05,02,07,49,16.50
2014,05,02,07,50,16.60
2014,05,02,07,51,16.60
2014,05,02,07,52,16.60
2014,05,02,07,53,16.60
2014,05,02,07,54,16.60
2014,05,02,07,55,16.60
2014,05,02,07,56,16.60
2014,05,02,07,57,16.60
2014,05,02,07,58,16.60
2014,05,02,07,59,16.60
2014,05,02,08,00,16.60
2014,05,02,08,01,16.60
2014,05,02,08,02,16.60
2014,05,02,08,03,16.60
2014,05,02,08,04,16.60
2014,05,02,08,05,16.50
2014,05,02,08,06,16.50
2014,05,02,08,07,16.50
2014,05,02,08,08,16.60
2014,05,02,08,09,16.60
2014,05,02,08,10,16.60
2014,05,02,08,11,16.60
2014,05,02,08,12,16.60
2014,05,02,08,13,16.60
2014,05,02,08,14,16.70
2014,05,02,08,15,16.70
2014,05,02,08,16,16.70
2014,05,02,08,17,16.70
2014,05,02,08,18,16.70
2014,05,02,08,19,16.70
2014,05,02,08,20,16.70
2014,05,02,08,21,16.70
2014,05,02,08,22,16.80
2014,05,02,08,23,16.80
2014,05,02,08,24,16.80
2014,05,02,08,25,16.80
2014,05,02,08,26,16.90
2014,05,02,08,27,16.90
2014,05,02,08,28,16.90
2014,05,02,08,29,16.90
2014,05,02,08,30,17.00
2014,05,02,08,31,17.00
2014,05,02,08,32,17.00
2014,05,02,08,33,17.00
2014,05,02,08,34,17.10
2014,05,02,08,35,17.10
2014,05,02,08,36,17.10
2014,05,02,08,37,17.10
2014,05,02,08,38,17.10
2014,05,02,08,39,17.20
2014,05,02,08,40,17.20
2014,05,02,08,41,17.20
2014,05,02,08,42,17.20
2014,05,02,08,43,17.20
2014,05,02,08,44,17.10
2014,05,02,08,45,17.10
2014,05,02,08,46,17.10
2014,05,02,08,47,17.20
2014,05,02,08,48,17.20
2014,05,02,08,49,17.20
2014,05,02,08,50,17.30
2014,05,02,08,51,17.30
2014,05,02,08,52,17.30
2014,05,02,08,53,17.30
2014,05,02,08,54,17.30
2014,05,02,08,55,17.30
2014,05,02,08,56,17.40
2014,05,02,08,57,17.40
2014,05,02,08,58,17.40
2014,05,02,08,59,17.50
2014,05,02,09,00,17.50
2014,05,02,09,01,17.60
2014,05,02,09,02,17.70
2014,05,02,09,03,17.80
2014,05,02,09,04,17.80
2014,05,02,09,05,17.90
2014,05,02,09,06,18.00
2014,05,02,09,07,18.10
2014,05,02,09,08,18.10
2014,05,02,09,09,18.20
2014,05,02,09,10,18.20
2014,05,02,09,11,18.30
2014,05,02,09,12,18.30
2014,05,02,09,13,18.30
2014,05,02,09,14,18.30
2014,05,02,09,15,18.20
2014,05,02,09,16,18.20
2014,05,02,09,17,18.10
2014,05,02,09,18,18.00
2014,05,02,09,19,17.90
2014,05,02,09,20,17.80
2014,05,02,09,21,17.70
2014,05,02,09,22,17.60
2014,05,02,09,23,17.50
2014,05,02,09,24,17.40
2014,05,02,09,25,17.40
2014,05,02,09,26,17.30
2014,05,02,09,27,17.30
2014,05,02,09,28,17.20
2014,05,02,09,29,17.20
2014,05,02,09,30,17.10
2014,05,02,09,31,17.10
2014,05,02,09,32,17.10
2014,05,02,09,33,17.00
2014,05,02,09,34,17.00
2014,05,02,09,35,16.90
2014,05,02,09,36,16.80
2014,05,02,09,37,16.70
2014,05,02,09,38,16.70
2014,05,02,09,39,16.50
2014,05,02,09,40,16.50
2014,05,02,09,41,16.40
2014,05,02,09,42,16.40
2014,05,02,09,43,16.30
2014,05,02,09,44,16.30
2014,05,02,09,45,16.30
2014,05,02,09,46,16.30
2014,05,02,09,47,16.30
2014,05,02,09,48,16.30
2014,05,02,09,49,16.40
2014,05,02,09,50,16.40
2014,05,02,09,51,16.40
2014,05,02,09,52,16.30
2014,05,02,09,53,16.30
2014,05,02,09,54,16.30
2014,05,02,09,55,16.40
2014,05,02,09,56,16.40
2014,05,02,09,57,16.40
2014,05,02,09,58,16.50
2014,05,02,09,59,16.60
2014,05,02,10,00,16.60
2014,05,02,10,01,16.60
2014,05,02,10,02,16.70
2014,05,02,10,03,16.70
2014,05,02,10,04,16.70
2014,05,02,10,05,16.70
2014,05,02,10,06,16.80
2014,05,02,10,07,16.80
2014,05,02,10,08,16.80
2014,05,02,10,09,16.80
2014,05,02,10,10,16.70
2014,05,02,10,11,16.70
2014,05,02,10,12,16.70
2014,05,02,10,13,16.70
2014,05,02,10,14,16.70
2014,05,02,10,15,16.60
2014,05,02,10,16,16.60
2014,05,02,10,17,16.60
2014,05,02,10,18,16.50
2014,05,02,10,19,16.50
2014,05,02,10,20,16.40
2014,05,02,10,21,16.40
2014,05,02,10,22,16.30
2014,05,02,10,23,16.30
2014,05,02,10,24,16.30
2014,05,02,10,25,16.30
2014,05,02,10,26,16.20
2014,05,02,10,27,16.20
2014,05,02,10,28,16.20
2014,05,02,10,29,16.10
2014,05,02,10,30,16.10
2014,05,02,10,31,16.10
2014,05,02,10,32,16.10
2014,05,02,10,33,16.20
2014,05,02,10,34,16.20
2014,05,02,10,35,16.20
2014,05,02,10,36,16.20
2014,05,02,10,37,16.10
2014,05,02,10,38,16.10
2014,05,02,10,39,16.10
2014,05,02,10,40,16.10
2014,05,02,10,41,16.10
2014,05,02,10,42,16.10
2014,05,02,10,43,16.10
2014,05,02,10,44,16.20
2014,05,02,10,45,16.20
2014,05,02,10,46,16.20
2014,05,02,10,47,16.20
2014,05,02,10,48,16.20
2014,05,02,10,49,16.30
2014,05,02,10,50,16.30
2014,05,02,10,51,16.30
2014,05,02,10,52,16.30
2014,05,02,10,53,16.30
2014,05,02,10,54,16.30
2014,05,02,10,55,16.30
2014,05,02,10,56,16.40
2014,05,02,10,57,16.40
2014,05,02,10,58,16.30
2014,05,02,10,59,16.40
2014,05,02,11,00,16.40
2014,05,02,11,01,16.40
2014,05,02,11,02,16.50
2014,05,02,11,03,16.50
2014,05,02,11,04,16.50
2014,05,02,11,05,16.60
2014,05,02,11,06,16.60
2014,05,02,11,07,16.60
2014,05,02,11,08,16.70
2014,05,02,11,09,16.80
2014,05,02,11,10,16.80
2014,05,02,11,11,16.90
2014,05,02,11,12,17.00
2014,05,02,11,13,17.10
2014,05,02,11,14,17.10
2014,05,02,11,15,17.10
2014,05,02,11,16,17.20
2014,05,02,11,17,17.20
2014,05,02,11,18,17.20
2014,05,02,11,19,17.20
2014,05,02,11,20,17.20
2014,05,02,11,21,17.30
2014,05,02,11,22,17.30
2014,05,02,11,23,17.40
2014,05,02,11,24,17.40
2014,05,02,11,25,17.40
2014,05,02,11,26,17.50
2014,05,02,11,27,17.50
2014,05,02,11,28,17.60
2014,05,02,11,29,17.60
2014,05,02,11,30,17.60
2014,05,02,11,31,17.70
2014,05,02,11,32,17.70
2014,05,02,11,33,17.70
2014,05,02,11,34,17.70
2014,05,02,11,35,17.70
2014,05,02,11,36,17.70
2014,05,02,11,37,17.70
2014,05,02,11,38,17.70
2014,05,02,11,39,17.70
2014,05,02,11,40,17.70
2014,05,02,11,41,17.70
2014,05,02,11,42,17.70
2014,05,02,11,43,17.70
2014,05,02,11,44,17.70
2014,05,02,11,45,17.80
2014,05,02,11,46,17.80
2014,05,02,11,47,17.90
2014,05,02,11,48,17.90
2014,05,02,11,49,18.00
2014,05,02,11,50,18.00
2014,05,02,11,51,18.10
2014,05,02,11,52,18.20
2014,05,02,11,53,18.20
2014,05,02,11,54,18.30
2014,05,02,11,55,18.30
2014,05,02,11,56,18.40
2014,05,02,11,57,18.40
2014,05,02,11,58,18.50
2014,05,02,11,59,18.60
2014,05,02,12,00,18.60
2014,05,02,12,01,18.70
2014,05,02,12,02,18.80
2014,05,02,12,03,18.80
2014,05,02,12,04,18.80
2014,05,02,12,05,18.90
2014,05,02,12,06,19.00
2014,05,02,12,07,19.00
2014,05,02,12,08,19.10
2014,05,02,12,09,19.20
2014,05,02,12,10,19.20
2014,05,02,12,11,19.30
2014,05,02,12,12,19.40
2014,05,02,12,13,19.40
2014,05,02,12,14,19.50
2014,05,02,12,15,19.50
2014,05,02,12,16,19.50
2014,05,02,12,17,19.50
2014,05,02,12,18,19.50
2014,05,02,12,19,19.50
2014,05,02,12,20,19.50
2014,05,02,12,21,19.50
2014,05,02,12,22,19.50
2014,05,02,12,23,19.50
2014,05,02,12,24,19.40
2014,05,02,12,25,19.40
2014,05,02,12,26,19.40
2014,05,02,12,27,19.50
2014,05,02,12,28,19.50
2014,05,02,12,29,19.50
2014,05,02,12,30,19.50
2014,05,02,12,31,19.50
2014,05,02,12,32,19.60
2014,05,02,12,33,19.50
2014,05,02,12,34,19.50
2014,05,02,12,35,19.50
2014,05,02,12,36,19.50
2014,05,02,12,37,19.40
2014,05,02,12,38,19.40
2014,05,02,12,39,19.50
2014,05,02,12,40,19.50
2014,05,02,12,41,19.40
2014,05,02,12,42,19.40
2014,05,02,12,43,19.40
2014,05,02,12,44,19.40
2014,05,02,12,45,19.50
2014,05,02,12,46,19.50
2014,05,02,12,47,19.50
2014,05,02,12,48,19.50
2014,05,02,12,49,19.50
2014,05,02,12,50,19.50
2014,05,02,12,51,19.50
2014,05,02,12,52,19.60
2014,05,02,12,53,19.60
2014,05,02,12,54,19.60
2014,05,02,12,55,19.70
2014,05,02,12,56,19.70
2014,05,02,12,57,19.70
2014,05,02,12,58,19.70
2014,05,02,12,59,19.70
2014,05,02,13,00,19.70
2014,05,02,13,01,19.80
2014,05,02,13,02,19.80
2014,05,02,13,03,19.80
2014,05,02,13,04,19.80
2014,05,02,13,05,19.80
2014,05,02,13,06,19.80
2014,05,02,13,07,19.80
2014,05,02,13,08,19.80
2014,05,02,13,09,19.80
2014,05,02,13,10,19.80
2014,05,02,13,11,19.80
2014,05,02,13,12,19.80
2014,05,02,13,13,19.80
2014,05,02,13,14,19.80
2014,05,02,13,15,19.70
2014,05,02,13,16,19.70
2014,05,02,13,17,19.70
2014,05,02,13,18,19.60
2014,05,02,13,19,19.60
2014,05,02,13,20,19.50
2014,05,02,13,21,19.50
2014,05,02,13,22,19.50
2014,05,02,13,23,19.60
2014,05,02,13,24,19.60
2014,05,02,13,25,19.70
2014,05,02,13,26,19.70
2014,05,02,13,27,19.70
2014,05,02,13,28,19.70
2014,05,02,13,29,19.70
2014,05,02,13,30,19.70
2014,05,02,13,31,19.70
2014,05,02,13,32,19.70
2014,05,02,13,33,19.70
2014,05,02,13,34,19.70
2014,05,02,13,35,19.70
2014,05,02,13,36,19.80
2014,05,02,13,37,19.80
2014,05,02,13,38,19.80
2014,05,02,13,39,19.80
2014,05,02,13,40,19.70
2014,05,02,13,41,19.60
2014,05,02,13,42,19.60
2014,05,02,13,43,19.50
2014,05,02,13,44,19.50
2014,05,02,13,45,19.40
2014,05,02,13,46,19.40
2014,05,02,13,47,19.40
2014,05,02,13,48,19.40
2014,05,02,13,49,19.40
2014,05,02,13,50,19.30
2014,05,02,13,51,19.30
2014,05,02,13,52,19.30
2014,05,02,13,53,19.20
2014,05,02,13,54,19.20
2014,05,02,13,55,19.10
2014,05,02,13,56,19.00
2014,05,02,13,57,19.00
2014,05,02,13,58,18.90
2014,05,02,13,59,18.90
2014,05,02,14,00,18.80
2014,05,02,14,01,18.80
2014,05,02,14,02,18.80
2014,05,02,14,03,18.70
2014,05,02,14,04,18.70
2014,05,02,14,05,18.70
2014,05,02,14,06,18.70
2014,05,02,14,07,18.60
2014,05,02,14,08,18.60
2014,05,02,14,09,18.60
2014,05,02,14,10,18.50
2014,05,02,14,11,18.50
2014,05,02,14,12,18.40
2014,05,02,14,13,18.40
2014,05,02,14,14,18.40
2014,05,02,14,15,18.30
2014,05,02,14,16,18.30
2014,05,02,14,17,18.30
2014,05,02,14,18,18.30
2014,05,02,14,19,18.30
2014,05,02,14,20,18.30
2014,05,02,14,21,18.30
2014,05,02,14,22,18.30
2014,05,02,14,23,18.30
2014,05,02,14,24,18.20
2014,05,02,14,25,18.20
2014,05,02,14,26,18.10
2014,05,02,14,27,18.00
2014,05,02,14,28,17.90
2014,05,02,14,29,17.80
2014,05,02,14,30,17.70
2014,05,02,14,31,17.60
2014,05,02,14,32,17.60
2014,05,02,14,33,17.50
2014,05,02,14,34,17.50
2014,05,02,14,35,17.40
2014,05,02,14,36,17.40
2014,05,02,14,37,17.30
2014,05,02,14,38,17.30
2014,05,02,14,39,17.30
2014,05,02,14,40,17.30
2014,05,02,14,41,17.30
2014,05,02,14,42,17.30
2014,05,02,14,43,17.30
2014,05,02,14,44,17.30
2014,05,02,14,45,17.30
2014,05,02,14,46,17.30
2014,05,02,14,47,17.30
2014,05,02,14,48,17.40
2014,05,02,14,49,17.40
2014,05,02,14,50,17.40
2014,05,02,14,51,17.40
2014,05,02,14,52,17.40
2014,05,02,14,53,17.40
2014,05,02,14,54,17.50
2014,05,02,14,55,17.50
2014,05,02,14,56,17.50
2014,05,02,14,57,17.50
2014,05,02,14,58,17.50
2014,05,02,14,59,17.50
2014,05,02,15,00,17.60
2014,05,02,15,01,17.60
2014,05,02,15,02,17.60
2014,05,02,15,03,17.60
2014,05,02,15,04,17.60
2014,05,02,15,05,17.60
2014,05,02,15,06,17.60
2014,05,02,15,07,17.60
2014,05,02,15,08,17.70
2014,05,02,15,09,17.70
2014,05,02,15,10,17.70
2014,05,02,15,11,17.80
2014,05,02,15,12,17.80
2014,05,02,15,13,18.00
2014,05,02,15,14,18.00
2014,05,02,15,15,18.10
2014,05,02,15,16,18.10
2014,05,02,15,17,18.00
2014,05,02,15,18,18.00
2014,05,02,15,19,18.00
2014,05,02,15,20,17.90
2014,05,02,15,21,17.90
2014,05,02,15,22,17.90
2014,05,02,15,23,17.90
2014,05,02,15,24,17.90
2014,05,02,15,25,18.00
2014,05,02,15,26,18.10
2014,05,02,15,27,18.20
2014,05,02,15,28,18.20
2014,05,02,15,29,18.20
2014,05,02,15,30,18.20
2014,05,02,15,31,18.20
2014,05,02,15,32,18.20
2014,05,02,15,33,18.20
2014,05,02,15,34,18.20
2014,05,02,15,35,18.10
2014,05,02,15,36,18.10
2014,05,02,15,37,18.00
2014,05,02,15,38,18.00
2014,05,02,15,39,18.10
2014,05,02,15,40,18.10
2014,05,02,15,41,18.20
2014,05,02,15,42,18.30
2014,05,02,15,43,18.40
2014,05,02,15,44,18.60
2014,05,02,15,45,18.70
2014,05,02,15,46,18.90
2014,05,02,15,47,19.10
2014,05,02,15,48,19.30
2014,05,02,15,49,19.30
2014,05,02,15,50,19.30
2014,05,02,15,51,19.20
2014,05,02,15,52,19.20
2014,05,02,15,53,19.20
2014,05,02,15,54,19.30
2014,05,02,15,55,19.20
2014,05,02,15,56,19.20
2014,05,02,15,57,19.20
2014,05,02,15,58,19.20
2014,05,02,15,59,19.20
2014,05,02,16,00,19.20
2014,05,02,16,01,19.20
2014,05,02,16,02,19.10
2014,05,02,16,03,19.10
2014,05,02,16,04,19.20
2014,05,02,16,05,19.20
2014,05,02,16,06,19.30
2014,05,02,16,07,19.30
2014,05,02,16,08,19.20
2014,05,02,16,09,19.20
2014,05,02,16,10,19.30
2014,05,02,16,11,19.40
2014,05,02,16,12,19.50
2014,05,02,16,13,19.70
2014,05,02,16,14,19.70
2014,05,02,16,15,19.60
2014,05,02,16,16,19.60
2014,05,02,16,17,19.60
2014,05,02,16,18,19.60
2014,05,02,16,19,19.50
2014,05,02,16,20,19.30
2014,05,02,16,21,19.20
2014,05,02,16,22,19.20
2014,05,02,16,23,19.30
2014,05,02,16,24,19.30
2014,05,02,16,25,19.30
2014,05,02,16,26,19.30
2014,05,02,16,27,19.30
2014,05,02,16,28,19.40
2014,05,02,16,29,19.50
2014,05,02,16,30,19.60
2014,05,02,16,31,19.60
2014,05,02,16,32,19.60
2014,05,02,16,33,19.60
2014,05,02,16,34,19.60
2014,05,02,16,35,19.60
2014,05,02,16,36,19.70
2014,05,02,16,37,19.80
2014,05,02,16,38,19.80
2014,05,02,16,39,19.80
2014,05,02,16,40,19.80
2014,05,02,16,41,19.70
2014,05,02,16,42,19.60
2014,05,02,16,43,19.40
2014,05,02,16,44,19.30
2014,05,02,16,45,19.30
2014,05,02,16,46,19.20
2014,05,02,16,47,19.20
2014,05,02,16,48,19.20
2014,05,02,16,49,19.10
2014,05,02,16,50,19.10
2014,05,02,16,51,19.10
2014,05,02,16,52,19.10
2014,05,02,16,53,18.90
2014,05,02,16,54,18.70
2014,05,02,16,55,18.60
2014,05,02,16,56,18.50
2014,05,02,16,57,18.50
2014,05,02,16,58,18.50
2014,05,02,16,59,18.60
2014,05,02,17,00,18.70
2014,05,02,17,01,18.90
2014,05,02,17,02,19.00
2014,05,02,17,03,19.10
2014,05,02,17,04,19.20
2014,05,02,17,05,19.10
2014,05,02,17,06,19.00
2014,05,02,17,07,18.80
2014,05,02,17,08,18.60
2014,05,02,17,09,18.50
2014,05,02,17,10,18.40
2014,05,02,17,11,18.30
2014,05,02,17,12,18.20
2014,05,02,17,13,18.10
2014,05,02,17,14,18.00
2014,05,02,17,15,17.90
2014,05,02,17,16,17.80
2014,05,02,17,17,17.70
2014,05,02,17,18,17.60
2014,05,02,17,19,17.60